Saguache, CO

3:06 PM MDT on July 24, 2017 (GMT -0600)
Saguache

Weather History for K04V - June, 2013

Change the Weather History Date:

Tuesday, June 25, 2013

  Actual Average (KALS) Record (KALS)
Temperature  
Mean Temperature 62 °F -  
Max Temperature 82 °F 81 °F 93 °F (2012)
Min Temperature 42 °F 42 °F 32 °F (1976)
Degree Days  
Heating Degree Days 3    
Growing Degree Days 12 (Base 50)    
Moisture  
Dew Point 20 °F    
Average Humidity 19    
Maximum Humidity 31    
Minimum Humidity 11    
Precipitation  
Precipitation 0.00 in - - ()
Sea Level Pressure  
Sea Level Pressure 30.20 in    
Wind  
Wind Speed 10 mph (NW)    
Max Wind Speed 20 mph    
Max Gust Speed 26 mph    
Visibility 10 miles    
Events      
Averages and records for this station are not official NWS values.
T = Trace of Precipitation, MM = Missing Value Source: NWS Daily Summary

Daily Weather History Graph

Daily Weather History Graph

Search for Another Location

Airport or City:

Trip Planner

Search our weather history database for the weather conditions in past years. The results will help you decide how hot, cold, wet, or windy it might be!

Date:

Astronomy

Jun. 25, 2013 Rise Set
Actual Time 5:43 AM MDT 8:31 PM MDT
Civil Twilight 5:11 AM MDT 9:03 PM MDT
Nautical Twilight 4:32 AM MDT 9:42 PM MDT
Astronomical Twilight 3:47 AM MDT 10:27 PM MDT
Moon 10:22 PM MDT (6/25) 8:23 AM MDT (6/25)
Length of Visible Light 15h 51m
Length of Day
14h 48m
Waning Gibbous, 92% of the Moon is Illuminated
Jun 25
Waning Gibbous
Jun 29
Last Quarter
Jul 8
New
Jul 15
First Quarter
Jul 22
Full

Hourly Weather History & Observations

Time (MDT) Temp. Windchill Dew Point Humidity Pressure Visibility Wind Dir Wind Speed Gust Speed Precip Events Conditions
12:15 AM 53.6 °F - 12.2 °F 19% 30.14 in 10.0 mi NW 8.1 mph - N/A   Clear
12:35 AM 51.8 °F - 14.0 °F 22% 30.14 in 10.0 mi North 6.9 mph - N/A   Clear
12:55 AM 50.0 °F - 14.0 °F 24% 30.14 in 10.0 mi NNW 8.1 mph - N/A   Clear
1:15 AM 48.2 °F - 12.2 °F 24% 30.14 in 10.0 mi North 6.9 mph - N/A   Clear
1:35 AM 48.2 °F - 12.2 °F 24% 30.14 in 10.0 mi North 8.1 mph - N/A   Clear
1:54 AM 51.8 °F - 12.2 °F 21% 30.14 in 10.0 mi North 10.4 mph - N/A   Clear
2:15 AM 53.6 °F - 12.2 °F 19% 30.15 in 10.0 mi NNW 8.1 mph - N/A   Clear
2:35 AM 50.0 °F - 12.2 °F 22% 30.14 in 10.0 mi North 10.4 mph - N/A   Clear
2:54 AM 50.0 °F - 12.2 °F 22% 30.14 in 10.0 mi NNW 8.1 mph - N/A   Clear
3:15 AM 48.2 °F - 14.0 °F 25% 30.15 in 10.0 mi NNW 9.2 mph - N/A   Clear
3:34 AM 50.0 °F - 14.0 °F 24% 30.15 in 10.0 mi NNW 10.4 mph - N/A   Clear
3:55 AM 46.4 °F 41.5 °F 14.0 °F 27% 30.15 in 10.0 mi NNW 10.4 mph - N/A   Clear
4:15 AM 48.2 °F - 14.0 °F 25% 30.15 in 10.0 mi North 10.4 mph - N/A   Clear
4:35 AM 44.6 °F 39.2 °F 14.0 °F 29% 30.16 in 10.0 mi NNW 10.4 mph - N/A   Clear
4:55 AM 44.6 °F 39.7 °F 15.8 °F 31% 30.16 in 10.0 mi NNW 9.2 mph - N/A   Clear
5:14 AM 48.2 °F - 14.0 °F 25% 30.16 in 10.0 mi North 10.4 mph - N/A   Clear
5:35 AM 42.8 °F 37.0 °F 14.0 °F 31% 30.17 in 10.0 mi NNW 10.4 mph - N/A   Clear
5:55 AM 42.8 °F 37.5 °F 14.0 °F 31% 30.19 in 10.0 mi North 9.2 mph - N/A   Clear
6:15 AM 42.8 °F 38.0 °F 14.0 °F 31% 30.19 in 10.0 mi NW 8.1 mph - N/A   Clear
6:35 AM 48.2 °F - 15.8 °F 27% 30.19 in 10.0 mi North 8.1 mph - N/A   Clear
6:55 AM 48.2 °F - 17.6 °F 30% 30.20 in 10.0 mi West 4.6 mph - N/A   Clear
7:14 AM 51.8 °F - 17.6 °F 26% 30.21 in 10.0 mi Calm Calm - N/A   Clear
7:35 AM 57.2 °F - 17.6 °F 21% 30.21 in 10.0 mi NNW 8.1 mph - N/A   Clear
7:55 AM 60.8 °F - 15.8 °F 17% 30.21 in 10.0 mi NW 10.4 mph - N/A   Clear
8:15 AM 62.6 °F - 15.8 °F 16% 30.21 in 10.0 mi NNW 6.9 mph - N/A   Clear
8:34 AM 64.4 °F - 17.6 °F 16% 30.21 in 10.0 mi NW 8.1 mph - N/A   Clear
8:55 AM 66.2 °F - 17.6 °F 15% 30.21 in 10.0 mi NW 13.8 mph - N/A   Clear
9:15 AM 68.0 °F - 17.6 °F 15% 30.21 in 10.0 mi WNW 17.3 mph - N/A   Clear
9:35 AM 69.8 °F - 17.6 °F 14% 30.21 in 10.0 mi WNW 19.6 mph 24.2 mph N/A   Clear
9:55 AM 69.8 °F - 17.6 °F 14% 30.21 in 10.0 mi NW 19.6 mph 26.5 mph N/A   Clear
10:14 AM 71.6 °F - 17.6 °F 13% 30.21 in 10.0 mi NNW 11.5 mph 25.3 mph N/A   Clear
10:35 AM 71.6 °F - 19.4 °F 14% 30.21 in 10.0 mi NW 11.5 mph 18.4 mph N/A   Clear
10:55 AM 73.4 °F - 19.4 °F 13% 30.21 in 10.0 mi NNW 13.8 mph 24.2 mph N/A   Clear
11:15 AM 73.4 °F - 19.4 °F 13% 30.21 in 10.0 mi WNW 12.7 mph 18.4 mph N/A   Clear
11:35 AM 73.4 °F - 19.4 °F 13% 30.21 in 10.0 mi West 3.5 mph - N/A   Clear
11:55 AM 73.4 °F - 21.2 °F 14% 30.21 in 10.0 mi West 10.4 mph - N/A   Clear
12:14 PM 75.2 °F - 21.2 °F 13% 30.21 in 10.0 mi WNW 8.1 mph 18.4 mph N/A   Clear
12:35 PM 75.2 °F - 21.2 °F 13% 30.21 in 10.0 mi South 8.1 mph - N/A   Clear
12:55 PM 77.0 °F - 21.2 °F 12% 30.20 in 10.0 mi South 10.4 mph 16.1 mph N/A   Clear
1:15 PM 75.2 °F - 23.0 °F 14% 30.20 in 10.0 mi South 6.9 mph - N/A   Clear
1:34 PM 77.0 °F - 23.0 °F 13% 30.19 in 10.0 mi SSW 3.5 mph - N/A   Clear
1:54 PM 78.8 °F - 23.0 °F 13% 30.19 in 10.0 mi South 9.2 mph - N/A   Clear
2:14 PM 78.8 °F - 24.8 °F 14% 30.19 in 10.0 mi South 11.5 mph 16.1 mph N/A   Clear
2:35 PM 80.6 °F - 23.0 °F 12% 30.19 in 10.0 mi South 11.5 mph 16.1 mph N/A   Clear
2:55 PM 78.8 °F - 21.2 °F 12% 30.19 in 10.0 mi SSE 8.1 mph 17.3 mph N/A   Clear
3:15 PM 80.6 °F - 23.0 °F 12% 30.18 in 10.0 mi SSW 8.1 mph - N/A   Clear
3:35 PM 80.6 °F - 23.0 °F 12% 30.17 in 10.0 mi SSW 10.4 mph 16.1 mph N/A   Clear
3:54 PM 80.6 °F - 23.0 °F 12% 30.17 in 10.0 mi South 12.7 mph 18.4 mph N/A   Clear
4:15 PM 82.4 °F - 23.0 °F 11% 30.17 in 10.0 mi SSE 11.5 mph - N/A   Clear
4:35 PM 82.4 °F - 24.8 °F 12% 30.17 in 10.0 mi SSW 9.2 mph - N/A   Clear
4:54 PM 80.6 °F - 26.6 °F 14% 30.17 in 10.0 mi NW 13.8 mph 18.4 mph N/A   Clear
5:15 PM 82.4 °F - 28.4 °F 14% 30.17 in 10.0 mi WNW 13.8 mph 25.3 mph N/A   Clear
5:35 PM 82.4 °F - 28.4 °F 14% 30.17 in 10.0 mi North 12.7 mph - N/A   Clear
5:55 PM 80.6 °F - 28.4 °F 15% 30.17 in 10.0 mi NW 15.0 mph - N/A   Clear
6:15 PM 80.6 °F - 28.4 °F 15% 30.18 in 10.0 mi NNW 10.4 mph 24.2 mph N/A   Clear
6:34 PM 78.8 °F - 28.4 °F 16% 30.18 in 10.0 mi NW 17.3 mph - N/A   Clear
6:55 PM 78.8 °F - 28.4 °F 16% 30.19 in 10.0 mi NW 12.7 mph 21.9 mph N/A   Clear
7:15 PM 77.0 °F - 26.6 °F 16% 30.19 in 10.0 mi North 13.8 mph - N/A   Clear
7:35 PM 77.0 °F - 26.6 °F 16% 30.20 in 10.0 mi North 12.7 mph 18.4 mph N/A   Clear
7:55 PM 75.2 °F - 26.6 °F 17% 30.21 in 10.0 mi North 13.8 mph 19.6 mph N/A   Clear
8:15 PM 73.4 °F - 26.6 °F 18% 30.22 in 10.0 mi North 12.7 mph - N/A   Clear
8:35 PM 71.6 °F - 26.6 °F 19% 30.22 in 10.0 mi North 11.5 mph - N/A   Clear
8:54 PM 71.6 °F - 26.6 °F 19% 30.23 in 10.0 mi North 8.1 mph 16.1 mph N/A   Clear
9:15 PM 69.8 °F - 26.6 °F 20% 30.24 in 10.0 mi North 9.2 mph - N/A   Clear
9:35 PM 68.0 °F - 26.6 °F 21% 30.26 in 10.0 mi NW 9.2 mph - N/A   Clear
9:55 PM 66.2 °F - 26.6 °F 23% 30.27 in 10.0 mi NNW 6.9 mph - N/A   Clear
10:15 PM 66.2 °F - 26.6 °F 23% 30.28 in 10.0 mi NNW 12.7 mph - N/A   Clear
10:35 PM 64.4 °F - 26.6 °F 24% 30.28 in 10.0 mi NW 13.8 mph - N/A   Clear
10:55 PM 64.4 °F - 26.6 °F 24% 30.28 in 10.0 mi NNW 10.4 mph - N/A   Clear
11:14 PM 64.4 °F - 26.6 °F 24% 30.29 in 10.0 mi NNW 11.5 mph - N/A   Clear
11:35 PM 64.4 °F - 26.6 °F 24% 30.29 in 10.0 mi NNW 11.5 mph - N/A   Clear
11:55 PM 64.4 °F - 26.6 °F 24% 30.29 in 10.0 mi NNW 13.8 mph - N/A   Clear